CLASSIFICA

RUN DAYS DECATHLON FIUMICINO

GARA DI CORSA SU STRADA KM 10

FIUMICINO (RM) 15/10/2017

DIVISIONI:
COMPETITIVA     CLASSIFICA:   ASSOLUTA    F     M    
CATEGORIE:   TUTTE    |   SF   |   SF35   |   SF40   |   SF45   |   SF50   |   SF55   |   SF60   |   SF70   |   SM   |   SM35   |   SM40   |   SM45   |   SM50   |   SM55   |   SM60   |   SM65   |   SM70  
FILTRO:
  Atleta      Team        Pulisci       Atleti classificati COMPETITIVA: 201  

Cliccare sulle colonne per cambiare ordinamento Pagina:   | 1 | | 2 | | 3 | | 4 | | 5 |
Azioni Pos. M/F Cat. P.Cat. Pett Naz Atleta Squadra Tempo Distacco in tempo Distacco in metri Min/Km
11SM1190LEPORE SILVIOPOL. CIOCIARIA A. FAVA00:33:28 00:00:00 0 03:21
22SM2143CESELLI GIOVANNIFIAMME GIALLE G. SIMONI00:33:40 00:00:12 59 03:22
33SM351193CASALINI VITTORIOTIRRENO ATL. CIVITAVECCHIA00:35:25 00:01:57 550 03:33
44SM451212DE DOMINICIS LUCAPOD. ERETUM LA TARTARUGA00:35:29 00:02:01 568 03:33
55SM352224CARTUCCIA ALESSANDRORUN CARD00:35:45 00:02:17 638 03:35
66SM3109FILIPPONE ROBERTOSANTA MARINELLA ATLETIC00:35:57 00:02:29 690 03:36
77SM40167FOSSATELLI EMILIANOASD SEMPRE DI CORSA TEAM00:35:59 00:02:31 699 03:36
88SM402117KIRIELEISON EMANUELEX-SOLID SPORT LAB00:36:04 00:02:36 720 03:36
99SM457CONTI EMANUELESS LAZIO ATLETICA LEGGERA00:36:15 00:02:47 767 03:38
1010SM4525BRUNO LUCIOISOLA SACRA A.S.C.D.00:37:12 00:03:44 1.003 03:43
1111SM45399VARI CLAUDIOVILLA AURELIA SPORTING CLUB00:37:31 00:04:03 1.079 03:45
1212SM4032BORELLI DANIELEISOLA SACRA A.S.C.D.00:37:36 00:04:08 1.099 03:46
1313SM544ANTOGNOLI LUCARUN CARD00:37:37 00:04:09 1.103 03:46
1414SM40460DE PASQUALI ROBERTOGS BANCARI ROMANI00:37:55 00:04:27 1.173 03:48
1515SM40530VIGLIOTTI GIULIANOISOLA SACRA A.S.C.D.00:38:10 00:04:42 1.231 03:49
1616SM45461DELLA TORRE STEFANOAMATORI VILLA PAMPHILI00:38:48 00:05:20 1.374 03:53
1717SM6108COSTANTINI FABIOSANTA MARINELLA ATLETIC00:39:14 00:05:46 1.469 03:55
1818SM7113PORCHIANELLO MARCOSANTA MARINELLA ATLETIC00:39:14 00:05:46 1.469 03:55
1919SM353124CAMPANELLI CHRISTIANRUN CARD00:39:29 00:06:01 1.523 03:57
2020SM354170JUNA ESTRELLA FRANCISCO JAVIERMARATHON ROMA CASTELFUSANO00:39:40 00:06:12 1.563 03:58
2121SM50174LINARI CORRADORCS00:39:44 00:06:16 1.577 03:58
2222SM35549BRUNORI ALESSIOASD JUST RUN00:39:58 00:06:30 1.626 04:00
2323SM502188DODDI GIOVANNISEMPRE DI CORSA TEAM00:40:07 00:06:39 1.657 04:01
2424SM455227DANIELE GIUSEPPETEAM CAMELOT00:40:11 00:06:43 1.671 04:01
2525SM551164DELIGIA FABIOMARATHON ROMA CASTELFUSANO00:40:25 00:06:57 1.719 04:03
2626SM45668GEMELLI DANIELESANTA MARINELLA ATLETIC00:40:39 00:07:11 1.767 04:04
2727SM45784PROFICO ROSARIOLADISPOLI PROF. CICLISMO00:40:44 00:07:16 1.783 04:04
2828SM356106PEPE FABRIZIOKALI KALASAG SPORT ESTREMI00:40:49 00:07:21 1.800 04:05
2929SM8142MARIOTTI MIRKOASD BOLSENA FORUN-SPORT00:41:01 00:07:33 1.840 04:06
3030SM601156CARA ANGELOMARATHON ROMA CASTELFUSANO00:41:02 00:07:34 1.844 04:06
3131SM970GREGORI SILVIOCALCATERRA SPORT ASD00:41:11 00:07:43 1.873 04:07
3232SM10217COSTRINI DANILORUN CARD00:41:19 00:07:51 1.899 04:08
3333SM406154CALVANI MASSIMILIANOMARATHON ROMA CASTELFUSANO00:41:21 00:07:53 1.906 04:08
3434SM11101DE MAIO ADRIANOATL. VILLA GUGLIELMI00:41:27 00:07:59 1.926 04:09
3535SM552169GRAZIOSI FELICEMARATHON ROMA CASTELFUSANO00:41:37 00:08:09 1.958 04:10
361SF451231UNGANIA GIOVANNAOLD STAR OSTIA00:41:50 00:08:22 2.000 04:11
3736SM553161DE ANGELIS FABIOMARATHON ROMA CASTELFUSANO00:41:55 00:08:27 2.015 04:12
382SF401232MENNA GIUSTINAATLETICAMENTE00:42:02 00:08:34 2.038 04:12
3937SM458127CASTELLANO MASSIMOPOD. SOLIDARIETA00:42:07 00:08:39 2.053 04:13
4038SM12122VIRGINI FEDERICORUN CARD00:42:19 00:08:51 2.091 04:14
4139SM407159CRUPI ANTONINO LORETOMARATHON ROMA CASTELFUSANO00:42:26 00:08:58 2.113 04:15
4240SM13215DEL PRINCIPE NICOLALEPROTTI DI VILLA ADA00:42:27 00:08:59 2.116 04:15
4341SM1491SGAMBATI MATTIARUN CARD00:42:40 00:09:12 2.156 04:16
4442SM503153CALORE GENNAROMARATHON ROMA CASTELFUSANO00:42:43 00:09:15 2.165 04:16
4543SM602111MICHESI VALTERSANTA MARINELLA ATLETIC00:42:45 00:09:17 2.171 04:17
4644SM4087CERRONE EMILIANOISOLA SACRA A.S.C.D.00:42:54 00:09:26 2.198 04:17
473SF1140CARNICELLI SARAFIDAL00:42:57 00:09:29 2.207 04:18
4845SM50465FELIZIANI CLAUDIOLAZIO RUNNERS TEAM00:43:07 00:09:39 2.238 04:19
4946SM409175PERILLI BIAGIOMARATHON ROMA CASTELFUSANO00:43:09 00:09:41 2.244 04:19
5047SM554184SCARAPECCHIA ANTONINOMARATHON ROMA CASTELFUSANO00:43:10 00:09:42 2.247 04:19
5148SM459136D'AGOSTINO ALESSANDROOLGIATA 20.1500:43:16 00:09:48 2.265 04:20
5249SM4510228PESCOSOLIDO PAOLOTEAM CAMELOT00:43:22 00:09:54 2.282 04:20
5350SM3578CRUCIANI ALESSANDROISOLA SACRA A.S.C.D.00:43:30 00:10:02 2.306 04:21
5451SM60373LANTERI GIUSEPPEATL. VILLA GUGLIELMI00:43:31 00:10:03 2.309 04:21
5552SM15230PELLEGRINI GABRIELETRIATHLON OSTIA00:43:32 00:10:04 2.312 04:21
564SF2211ROMAGNOLI SONIAINDIVIDUALE00:43:33 00:10:05 2.315 04:21
5753SM401063ERCULEI FABRIZIOATL. VILLA GUGLIELMI00:43:43 00:10:15 2.344 04:22
5854SM401153CAVALLARO ANGELOASD MONTEROSI RUN00:43:45 00:10:17 2.350 04:23
5955SM505152BOLDRINI ALESSANDROMARATHON ROMA CASTELFUSANO00:43:52 00:10:24 2.370 04:23
6056SM4511229TALIENTO GIANCARLOTEAM CAMELOT00:43:59 00:10:31 2.391 04:24
6157SM555226BARRESI NATALETEAM CAMELOT00:44:08 00:10:40 2.416 04:25
6258SM451262D'UFFIZI ROBERTOATLETICA LA SBARRA00:44:14 00:10:46 2.434 04:25
6359SM451395TAMAGNINI MICHELEUISP00:44:17 00:10:49 2.442 04:26
6460SM4514165DI GAETANO MARIOMARATHON ROMA CASTELFUSANO00:44:20 00:10:52 2.451 04:26
6561SM651130PIPINI MARIOPOD. SOLIDARIETA00:44:20 00:10:52 2.451 04:26
665SF4023BOSCO HANAISOLA SACRA A.S.C.D.00:44:22 00:10:54 2.456 04:26
6762SM358148BUTTARAZZI ANDREAISOLA SACRA A.S.C.D.00:44:25 00:10:57 2.465 04:27
6863SM1672IADAROLA GIOVANNICSEN00:44:28 00:11:00 2.473 04:27
6964SM50639ACUNZO PASQUALEGSD LITAL00:44:29 00:11:01 2.476 04:27
7065SM401232CICIRIELLO ALESSANDROISOLA SACRA A.S.C.D. (N.C.)00:44:29 00:11:01 2.476 04:27
7166SM507138ROCCHI FABIOLIBERATLETICA00:44:32 00:11:04 2.485 04:27
7267SM50858DE ANGELIS ADRIANOROMATLETICA SALARIA VILLAGE00:44:35 00:11:07 2.493 04:28
7368SM451577MICHELI ANDREARUNNERS FOUR EMERGRNCY00:44:35 00:11:07 2.493 04:28
7469SM4516174PERCIBALLI IVANMARATHON ROMA CASTELFUSANO00:44:46 00:11:18 2.524 04:29
7570SM556207DI FRUSCIO VINCENZOPODISTICA CASALOTTI00:44:51 00:11:23 2.538 04:29
7671SM359107ZIRILLI EDOARDOKALI KALASAG SPORT ESTREMI00:44:52 00:11:24 2.540 04:29
7772SM3510115DI PAOLO DANIELEX-SOLID SPORT LAB00:44:53 00:11:25 2.543 04:29
7873SM4013214SANTALUCIA SANTORUNNERS FOR EMERGENCY00:44:55 00:11:27 2.549 04:30
7974SM401494STEFHAN FABRIZIORUNNERS FOR EMERGENCY00:44:57 00:11:29 2.554 04:30
8075SM4517225LAURENTI MARCODUE PONTI00:44:59 00:11:31 2.560 04:30
8176SM4518202DE FABIIS MASSIMILIANOG.S. CAT SPORT ROMA00:45:01 00:11:33 2.565 04:30
8277SM4015114BELLAVITE LUCAX-SOLID SPORT LAB00:45:02 00:11:34 2.568 04:30
8378SM4519128GUALTIERI FABIOPOD. SOLIDARIETA00:45:05 00:11:37 2.576 04:31
8479SM4520186VENTUCCI ALESSANDROMARATHON ROMA CASTELFUSANO00:45:06 00:11:38 2.579 04:31
8580SM65279NOBILE GIUSEPPEOSTIA ANTICA ATHLETAE00:45:12 00:11:44 2.595 04:31
8681SM557178RAMPOGNA MARCOMARATHON ROMA CASTELFUSANO00:45:13 00:11:45 2.598 04:31
8782SM604221DE LUCIA ANDREALIBERATLETICA00:45:14 00:11:46 2.601 04:31
8883SM55855COLANTONI PAOLOROMATLETICA SALARIA VILLAGE00:45:29 00:12:01 2.641 04:33
8984SM4521146TRIPEPI ANTONIOATL. VILLA GUGLIELMI00:45:34 00:12:06 2.655 04:33
9085SM4522209BITTONI LUCAMARATHON ROMA CASTELFUSANO00:45:35 00:12:07 2.658 04:34
9186SM4016198MU ALBERTOISOLA SACRA A.S.C.D.00:45:48 00:12:20 2.692 04:35
9287SM452369GIANNINI CLAUDIOASD SEMPRE DI CORSA TEAM00:45:49 00:12:21 2.695 04:35
9388SM4017126BARTOLONI FABRIZIOPOD. SOLIDARIETA00:45:49 00:12:21 2.695 04:35
9489SM401886RAMUNDO MAURIZIOASD TRIATHLON OSTIA00:45:52 00:12:24 2.703 04:35
9590SM60592SOMMA MARIORUN CARD00:45:59 00:12:31 2.722 04:36
9691SM401915LUCHETTA ANDREAISOLA SACRA A.S.C.D.00:46:01 00:12:33 2.727 04:36
9792SM653139FENAROLI VITTORIOOSTIA ANTICA ATHLETAE00:46:20 00:12:52 2.776 04:38
9893SM4524137DI SALVO FABRIZIOTIMOROSI ASTENERSI00:46:27 00:12:59 2.795 04:39
996SF35164FAZIO CANDIANAJUVENIA SSD00:46:36 00:13:08 2.818 04:40
10094SM55920MORONI MASSIMOISOLA SACRA A.S.C.D.00:46:48 00:13:20 2.849 04:41
10195SM351193SORRENTINI VITTORIOLIONS VALLE UFITA00:46:54 00:13:26 2.864 04:41
10296SM452548BRACCINI GIANLUCAOSTIA ANTICA ATHLETAE00:46:58 00:13:30 2.874 04:42
10397SM452690SCOPELLITI GIONANNITRIATHLON OSTIA00:47:10 00:13:42 2.904 04:43
10498SM509208PACIFICI MAUROG.S. CAT SPORT ROMA00:47:13 00:13:45 2.912 04:43
10599SM452785PUCCITELLI AGOSTINOO.S.O. OLD STAR OSTIA00:47:20 00:13:52 2.929 04:44
106100SM3512205PIERSANTI PAOLOG.S. CAT SPORT ROMA00:47:20 00:13:52 2.929 04:44
107101SM501018MIRMINA GIUSEPPEISOLA SACRA A.S.C.D.00:47:32 00:14:04 2.959 04:45
108102SM551066FIGUEROA WILFREDO A.ALSIUM LADISPOLI00:47:55 00:14:27 3.015 04:48
109103SM551196TIRAFERRI GIUSEPPERUN CARD00:47:55 00:14:27 3.015 04:48
110104SM452880PERRINO GIOACCGHINOATL. VILLA GUGLIELMI00:47:59 00:14:31 3.025 04:48
111105SM5011197LOFFREDO ANTONIOISOLA SACRA A.S.C.D.00:48:00 00:14:32 3.027 04:48
112106SM501219MOORE PAULISOLA SACRA A.S.C.D.00:48:00 00:14:32 3.027 04:48
113107SM5512157CASALE STEFANOMARATHON ROMA CASTELFUSANO00:48:02 00:14:34 3.032 04:48
114108SM17183SANTILLI ANDREA ALFREDOMARATHON ROMA CASTELFUSANO00:48:11 00:14:43 3.054 04:49
115109SM5013141VIRGILI LAMBERTOFIDAL00:48:13 00:14:45 3.059 04:49
116110SM606125PIETRELLA FRANCOLIBERATLETICA00:48:13 00:14:45 3.059 04:49
117111SM452923PIRRITANO MARCOISOLA SACRA A.S.C.D.00:48:18 00:14:50 3.071 04:50
118112SM402026TORAZZI MARCOISOLA SACRA A.S.C.D.00:48:24 00:14:56 3.085 04:50
119113SM5513100FALLONI MAURIZIOATL. MONTE MARIO00:48:26 00:14:58 3.090 04:51
120114SM4530233FANI FABRIZIOUISP CIVITAVECCHIA00:48:38 00:15:10 3.118 04:52
121115SM351311DE PAULIS FERDINANDOISOLA SACRA A.S.C.D.00:48:52 00:15:24 3.151 04:53
122116SM501410DE FILIPPO GIOVANNIISOLA SACRA A.S.C.D.00:48:53 00:15:25 3.153 04:53
123117SM351450BUDANO ANDREAPOD. CASALOTTI00:49:01 00:15:33 3.172 04:54
124118SM1828TRAPANI FRANCESCOISOLA SACRA A.S.C.D.00:49:09 00:15:41 3.190 04:55
125119SM607162DE DOMINICIS SILVANOMARATHON ROMA CASTELFUSANO00:49:21 00:15:53 3.218 04:56
126120SM5514131FLAMINI ALESSANDROPOD. ALSIUM LADISPOLI00:49:25 00:15:57 3.227 04:57
127121SM608179RINALDI MATTEOMARATHON ROMA CASTELFUSANO00:49:40 00:16:12 3.261 04:58
128122SM5015210CHESSA PAOLOMARATHON ROMA CASTELFUSANO00:49:44 00:16:16 3.270 04:58
129123SM453127TORNESE PAOLOISOLA SACRA A.S.C.D.00:50:00 00:16:32 3.306 05:00
130124SM3515147ZINGHINI MAUROPOL. CALI' ROMA XIII00:50:05 00:16:37 3.317 05:01
131125SM351640ALFIERI MARCOVILLA ADA GREEN RUNNERS00:50:05 00:16:37 3.317 05:01
132126SM4021206FORMICA FABRIZIORUN CARD00:50:16 00:16:48 3.342 05:02
133127SM609182SANTILLI PAOLOMARATHON ROMA CASTELFUSANO00:50:21 00:16:53 3.353 05:02
134128SM4022196DI DOMENICO ENRICOISOLA SACRA A.S.C.D.00:50:22 00:16:54 3.355 05:02
135129SM6010158CHIATTI MARIOMARATHON ROMA CASTELFUSANO00:50:47 00:17:19 3.409 05:05
136130SM1924ROMANI RICCARDOISOLA SACRA A.S.C.D.00:50:53 00:17:25 3.422 05:05
137131SM654171LEGRAMANTE AUROMARATHON ROMA CASTELFUSANO00:50:57 00:17:29 3.431 05:06
138132SM6011220MAGNI CARLOUISP ROMA00:50:59 00:17:31 3.435 05:06
1397SF501176PIETRANTONIO FILOMENAMARATHON ROMA CASTELFUSANO00:50:59 00:17:31 3.435 05:06
140133SM5016203DE FABIIS PIO GIORGIOG.S. CAT SPORT ROMA00:51:06 00:17:38 3.450 05:07
141134SM3517110LANCIONI MILKOSANTA MARINELLA ATLETIC00:51:06 00:17:38 3.450 05:07
1428SF352189DONATELLI MARGHERITASEMPRE DI CORSA TEAM00:51:13 00:17:45 3.465 05:07
143135SM501738ROMANI FABIOISOLA SACRA A.S.C.D. (N.C.)00:51:29 00:18:01 3.499 05:09
144136SM209DE ANGELIS DAVIDEISOLA SACRA A.S.C.D.00:51:36 00:18:08 3.514 05:10
145137SM6012213LOPEZ STEFANOMARATHON ROMA CASTELFUSANO00:51:50 00:18:22 3.543 05:11
146138SM402375MARINI DANILORUN CARD00:52:01 00:18:33 3.566 05:12
147139SM6013185TOGNALINI ROBERTOMARATHON ROMA CASTELFUSANO00:52:06 00:18:38 3.576 05:13
148140SM4024173PECORELLA GIANCARLOMARATHON ROMA CASTELFUSANO00:52:52 00:19:24 3.669 05:17
149141SM453245BAIONE FABRIZIORUNFOREVER APRILIA00:52:56 00:19:28 3.677 05:18
1509SF45212DI GIOVANNI FLORIANAISOLA SACRA A.S.C.D.00:52:59 00:19:31 3.683 05:18
151142SM351816MATTEUCCI FRANCESCOISOLA SACRA A.S.C.D.00:52:59 00:19:31 3.683 05:18
152143SM4025194PECORELLA FABIOISOLA SACRA A.S.C.D.00:53:27 00:19:59 3.738 05:21
153144SM655181SALVATI FELICEMARATHON ROMA CASTELFUSANO00:53:28 00:20:00 3.740 05:21
154145SM402646BARALDO ANTONIOFITRI00:53:42 00:20:14 3.767 05:22
155146SM4027222IORI ROBERTOSEMPRE DI CORSA TEAM00:53:46 00:20:18 3.775 05:23
156147SM351988SAVASTA MAUROASD SEMPRE DI CORSA TEAM00:53:46 00:20:18 3.775 05:23
15710SF353116GRAVANTE VALERIAX-SOLID SPORT LAB00:53:56 00:20:28 3.794 05:24
158148SM656223DI MARCO DOMENICOATL. VILLA GUGLIELMI00:54:13 00:20:45 3.827 05:25
159149SM453322PICA MASSIMILIANOISOLA SACRA A.S.C.D.00:54:29 00:21:01 3.857 05:27
160150SM21118SGARIGLIA ANDREAX-SOLID SPORT LAB00:54:35 00:21:07 3.868 05:28
161151SM551514IAPELLA UMBERTOISOLA SACRA A.S.C.D.00:54:47 00:21:19 3.891 05:29
16211SF551180ROMAGNOLI FLAVIAMARATHON ROMA CASTELFUSANO00:54:53 00:21:25 3.902 05:29
16312SF50213DIODATI MARCELLAISOLA SACRA A.S.C.D.00:54:56 00:21:28 3.907 05:30
164152SM5018160CUNGI RICCARDOMARATHON ROMA CASTELFUSANO00:55:07 00:21:39 3.928 05:31
16513SF4534BRUNO TIZIANAISOLA SACRA A.S.C.D.00:55:07 00:21:39 3.928 05:31
166153SM453498VALLATI DAVIDEALMOSTHERE ASD00:55:23 00:21:55 3.957 05:32
167154SM402829VARCHETTA LUCIOISOLA SACRA A.S.C.D.00:56:00 00:22:32 4.023 05:36
168155SM22104DI BRACCIO SANDROKALI KALASAG SPORT ESTREMI00:56:01 00:22:33 4.025 05:36
16914SF503177PIRAS ANNA RITAMARATHON ROMA CASTELFUSANO00:56:04 00:22:36 4.030 05:36
17015SF354119SIMEONE ELENAX-SOLID SPORT LAB00:57:07 00:23:39 4.140 05:43
171156SM5019135PROIETTI SANTINOOLGIATA 20.1400:57:09 00:23:41 4.144 05:43
17216SF403123MATTA DARIARUN CARD00:57:16 00:23:48 4.155 05:44
173157SM70151CAMILLI GIUSEPPEATL. ANZIO00:57:25 00:23:57 4.171 05:45
174158SM45356CACCIOTTI MARCOISOLA SACRA A.S.C.D.00:57:30 00:24:02 4.179 05:45
175159SM453689SCOGNAMIGLIO MASSIMORUN CARD00:57:55 00:24:27 4.221 05:48
176160SM4537144DANTE ANTONINOATL. VILLA GUGLIELMI00:57:57 00:24:29 4.224 05:48
17717SF60125TONCELLI ROSSELLAISOLA SACRA A.S.C.D.00:57:58 00:24:30 4.226 05:48
17818SF45433CORTINOVIS VALENTINAISOLA SACRA A.S.C.D. (N.C.)00:57:58 00:24:30 4.226 05:48
179161SM601482PICA BRUNOLIBERTAS OSTIA RUNNERS00:58:09 00:24:41 4.244 05:49
180162SM5020150ALBERTO ROBERTOMARATHON ROMA CASTELFUSANO00:58:28 00:25:00 4.275 05:51
181163SM453883PIERGENTILI GUALTIEROFITRI00:58:31 00:25:03 4.280 05:51
18219SF504167GERMONDARI SIMONAMARATHON ROMA CASTELFUSANO00:59:27 00:25:59 4.370 05:57
183164SM657155CAMILLI BERNARDINOMARATHON ROMA CASTELFUSANO00:59:27 00:25:59 4.370 05:57
184165SM702216ORIONI GIOVANNIROMA TRIATHLON00:59:47 00:26:19 4.402 05:59
185166SM658218TRABUCCO ANTONIOROMATLETICA SALARIA VILLAGE00:59:53 00:26:25 4.411 05:59
18620SF552120MICILLO ANGELAISOLA SACRA A.S.C.D.01:00:03 00:26:35 4.426 06:00
18721SF505121ISIDORI ANNARITAATL. VILLA GUGLIELMI01:00:03 00:26:35 4.426 06:00
188167SM703195CORVARO GINOPOD. MARE DI ROMA01:00:12 00:26:44 4.440 06:01
189168SM502154COCCO ALDORUN CARD01:00:16 00:26:48 4.446 06:02
190169SM402956CONTE PAPUZZI LUCARUN CARD01:01:23 00:27:55 4.547 06:08
191170SM5022163DE MARINIS ALESSANDROMARATHON ROMA CASTELFUSANO01:01:31 00:28:03 4.559 06:09
192171SM704132CAPRIOTTI ALBINOOLGIATA 20.1201:03:07 00:29:39 4.697 06:19
193172SM705191SCOGNAMIGLIO GAETANOATL. VILLA GUGLIELMI01:03:40 00:30:12 4.743 06:22
194173SM65936MOROSINI RODOLFOISOLA SACRA A.S.C.D. (N.C.)01:04:29 00:31:01 4.810 06:27
195174SM6015151BOBO' MAUROMARATHON ROMA CASTELFUSANO01:05:03 00:31:35 4.855 06:30
19622SF701166FANISIO ADELEMARATHON ROMA CASTELFUSANO01:06:14 00:32:46 4.947 06:37
19723SF60221PALMIERI ANGELAISOLA SACRA A.S.C.D.01:06:18 00:32:50 4.952 06:38
198175SM403041AMATI GIANLUCARUN CARD01:07:54 00:34:26 5.071 06:47
199176SM4539103DE ZULIANI ALESSANDROKALI KALASAG SPORT ESTREMI01:08:23 00:34:55 5.106 06:50
20024SF603219CRISTIANI DANIELAUISP ROMA01:10:31 00:37:03 5.254 07:03
20125SF455172LOIACONO MARIA ANGELAMARATHON ROMA CASTELFUSANO01:13:01 00:39:33 5.416 07:18
Righe per pagina::     TUTTE    |   30   |   50   |   100   Pagina:   | 1 | | 2 | | 3 | | 4 | | 5 |